Regional Weather Roundup
Issued by NWS Nashville, TN

Home | Current Version | Previous Version | Text Only | Print | Product List | Glossary On
Versions: 1 2 3 4 5 6 7 8 9 10 11 12 13 14 15 16 17 18 19 20 21 22 23 24 25 26 27 28 29 30 31 32 33 34 35 36 37 38 39 40 41 42 43 44 45 46 47 48 49 50
000
ASUS44 KOHX 170310
RWROHX
MIDDLE TENNESSEE HOURLY WEATHER ROUNDUP
NATIONAL WEATHER SERVICE NASHVILLE TN
900 PM CST MON JAN 16 2017

NOTE: "FAIR" INDICATES FEW OR NO CLOUDS BELOW 12,000 FEET WITH
NO SIGNIFICANT WEATHER AND/OR OBSTRUCTIONS TO VISIBILITY.

* THESE REPORTS ARE NOT UNDER NWS QUALITY CONTROL AND MAY NOT
  REPORT WEATHER SUCH AS PRECIPITATION AND FOG.


TNZ005>011-023>034-057-059-062>066-078-080-170400
...NORTHERN MIDDLE TENNESSEE...

CITY           SKY/WX    TMP DP  RH WIND       PRES   REMARKS
CLARKSVILLE    CLOUDY    63  56  78 S14G22    30.02F
CROSSVILLE     CLOUDY    58  52  80 VRB7G17   30.18S
GALLATIN       CLOUDY    66  52  59 S8G15     30.11S
DICKSON        CLOUDY    59  59 100 S8        30.05F
LEBANON        CLOUDY    64  52  65 S14       30.08S
NASHVILLE      RAIN      62  55  77 S9        30.09S
PORTLAND       CLOUDY    64  52  63 S13G23    30.07S
SMYRNA         LGT RAIN  62  54  74 S7        30.10F
WEST NASHVILLE MOCLDY    61  55  82 S6        30.08S
$$
TNZ056-058-060-061-075>077-079-093>097-170400
...SOUTHERN MIDDLE TENNESSEE...

CITY           SKY/WX    TMP DP  RH WIND       PRES   REMARKS
COLUMBIA       CLOUDY    63  63 100 S12       30.07F
FAYETTEVILLE   CLOUDY    64  52  63 S12       30.13F
MCMINNVILLE    CLEAR     64  54  68 S8        30.13F
SHELBYVILLE    CLOUDY    66  54  63 S10       30.12F
TULLAHOMA      MOCLDY    64  48  55 S10       30.14F
WINCHESTER     MOCLDY    63  50  63 S9        30.14F
$$


...KEY TO REMARKS...
VSB - VISIBILITY IN MILES
WCI - WIND CHILL INDEX
HX  - HEAT INDEX




USA.gov is the U.S. government's official web portal to all federal, state and local government web resources and services.